Time,TemperatureF,DewpointF,PressureIn,WindDirection,WindDirectionDegrees,WindSpeedMPH,WindSpeedGustMPH,Humidity,HourlyPrecipIn,Conditions,Clouds,dailyrainin,SoftwareType,DateUTC
2013-02-19 09:22:00,19.0,17.0,29.40,NNW,329,14.0,28.0,90,0.00,,,0.00,,2013-02-19 15:22:00,
2013-02-19 09:32:00,19.0,17.0,29.40,NW,325,13.0,21.0,90,0.00,,,0.00,,2013-02-19 15:32:00,
2013-02-19 09:42:00,19.0,17.0,29.40,NW,325,13.0,21.0,90,0.00,,,0.00,,2013-02-19 15:42:00,
2013-02-19 09:52:00,19.0,17.0,29.41,NNW,329,12.0,22.0,90,0.00,,,0.00,,2013-02-19 15:52:00,
2013-02-19 10:01:00,19.0,17.0,29.42,NNW,327,11.0,19.0,90,0.00,,,0.00,,2013-02-19 16:01:00,
2013-02-19 10:11:00,19.0,17.0,29.42,NNW,327,11.0,19.0,90,0.00,,,0.00,,2013-02-19 16:11:00,
2013-02-19 10:21:00,18.0,15.0,29.42,NNW,341,14.0,20.0,89,0.00,,,0.00,,2013-02-19 16:21:00,
2013-02-19 10:32:00,18.0,15.0,29.43,NNW,335,11.0,18.0,89,0.00,,,0.00,,2013-02-19 16:32:00,
2013-02-19 10:41:00,18.0,15.0,29.43,NNW,335,11.0,18.0,89,0.00,,,0.00,,2013-02-19 16:41:00,
2013-02-19 10:51:00,19.0,16.0,29.46,NNW,333,10.0,19.0,89,0.00,,,0.00,,2013-02-19 16:51:00,
2013-02-19 11:01:00,19.0,16.0,29.46,NNW,331,12.0,22.0,89,0.00,,,0.00,,2013-02-19 17:01:00,
2013-02-19 11:11:00,19.0,16.0,29.46,NNW,331,12.0,22.0,89,0.00,,,0.00,,2013-02-19 17:11:00,
2013-02-19 11:21:00,18.0,15.0,29.47,NNW,341,11.0,17.0,87,0.00,,,0.00,,2013-02-19 17:21:00,
2013-02-19 11:32:00,19.0,16.0,29.48,NNW,328,10.0,18.0,88,0.00,,,0.00,,2013-02-19 17:32:00,
2013-02-19 11:41:00,19.0,16.0,29.48,NNW,328,10.0,18.0,88,0.00,,,0.00,,2013-02-19 17:41:00,
2013-02-19 11:52:00,19.0,16.0,29.48,NNW,328,10.0,18.0,88,0.00,,,0.00,,2013-02-19 17:52:00,
2013-02-19 12:01:00,19.0,16.0,29.48,NNW,328,10.0,18.0,88,0.00,,,0.00,,2013-02-19 18:01:00,
2013-02-19 12:11:00,19.0,16.0,29.48,NNW,328,10.0,18.0,88,0.00,,,0.00,,2013-02-19 18:11:00,
2013-02-19 12:21:00,18.0,15.0,29.50,NNW,330,9.0,19.0,86,0.00,,,0.00,,2013-02-19 18:21:00,
2013-02-19 12:32:00,19.0,16.0,29.50,NW,324,10.0,18.0,86,0.00,,,0.00,,2013-02-19 18:32:00,
2013-02-19 12:42:00,19.0,16.0,29.51,NNW,332,11.0,16.0,86,0.00,,,0.00,,2013-02-19 18:42:00,
2013-02-19 12:52:00,19.0,16.0,29.51,NNW,332,11.0,16.0,86,0.00,,,0.00,,2013-02-19 18:52:00,
2013-02-19 13:01:00,19.0,16.0,29.52,NW,326,9.0,19.0,86,0.00,,,0.00,,2013-02-19 19:01:00,
2013-02-19 13:11:00,19.0,16.0,29.52,NW,326,9.0,19.0,86,0.00,,,0.00,,2013-02-19 19:11:00,
2013-02-19 13:21:00,19.0,16.0,29.52,NNW,328,9.0,16.0,86,0.00,,,0.00,,2013-02-19 19:21:00,
2013-02-19 13:32:00,19.0,15.0,29.53,NW,325,10.0,18.0,85,0.00,,,0.00,,2013-02-19 19:32:00,
2013-02-19 13:41:00,19.0,15.0,29.53,NW,325,10.0,18.0,85,0.00,,,0.00,,2013-02-19 19:41:00,
2013-02-19 13:51:00,19.0,15.0,29.53,NW,325,10.0,18.0,85,0.00,,,0.00,,2013-02-19 19:51:00,
2013-02-19 14:01:00,19.0,15.0,29.55,NW,324,7.0,13.0,85,0.00,,,0.00,,2013-02-19 20:01:00,
2013-02-19 14:12:00,19.0,15.0,29.55,NW,324,7.0,13.0,85,0.00,,,0.00,,2013-02-19 20:12:00,
2013-02-19 14:21:00,19.0,15.0,29.55,NW,324,7.0,13.0,85,0.00,,,0.00,,2013-02-19 20:21:00,
2013-02-19 14:32:00,19.0,15.0,29.57,NW,321,10.0,18.0,83,0.00,,,0.00,,2013-02-19 20:32:00,
2013-02-19 14:42:00,19.0,15.0,29.57,NW,321,10.0,18.0,83,0.00,,,0.00,,2013-02-19 20:42:00,
2013-02-19 14:52:00,19.0,15.0,29.57,NW,321,10.0,18.0,83,0.00,,,0.00,,2013-02-19 20:52:00,
2013-02-19 15:02:00,19.0,14.0,29.58,NW,323,9.0,18.0,82,0.00,,,0.00,,2013-02-19 21:02:00,
2013-02-19 15:11:00,19.0,14.0,29.58,NW,323,9.0,18.0,82,0.00,,,0.00,,2013-02-19 21:11:00,
2013-02-19 15:21:00,19.0,15.0,29.61,NW,320,9.0,19.0,83,0.00,,,0.00,,2013-02-19 21:21:00,
2013-02-19 15:32:00,19.0,14.0,29.61,NW,326,11.0,19.0,82,0.00,,,0.00,,2013-02-19 21:32:00,
2013-02-19 15:42:00,19.0,14.0,29.61,NW,326,11.0,19.0,82,0.00,,,0.00,,2013-02-19 21:42:00,
2013-02-19 15:52:00,18.0,13.0,29.62,NW,321,10.0,20.0,82,0.00,,,0.00,,2013-02-19 21:52:00,
2013-02-19 16:02:00,18.0,13.0,29.65,NW,325,14.0,22.0,81,0.00,,,0.00,,2013-02-19 22:02:00,
2013-02-19 16:11:00,18.0,13.0,29.65,NW,325,14.0,22.0,81,0.00,,,0.00,,2013-02-19 22:11:00,
2013-02-19 16:21:00,17.0,12.0,29.65,NNW,332,13.0,21.0,82,0.00,,,0.00,,2013-02-19 22:21:00,
2013-02-19 16:32:00,17.0,12.0,29.66,NNW,327,13.0,22.0,81,0.00,,,0.00,,2013-02-19 22:32:00,
2013-02-19 16:41:00,17.0,12.0,29.66,NNW,327,13.0,22.0,81,0.00,,,0.00,,2013-02-19 22:41:00,
2013-02-19 16:51:00,17.0,12.0,29.66,NNW,327,13.0,22.0,81,0.00,,,0.00,,2013-02-19 22:51:00,
2013-02-19 17:01:00,16.0,11.0,29.69,NW,326,11.0,19.0,80,0.00,,,0.00,,2013-02-19 23:01:00,
2013-02-19 17:11:00,16.0,11.0,29.69,NW,326,11.0,19.0,80,0.00,,,0.00,,2013-02-19 23:11:00,
2013-02-19 17:21:00,16.0,11.0,29.69,NW,326,11.0,19.0,80,0.00,,,0.00,,2013-02-19 23:21:00,
2013-02-19 17:32:00,16.0,11.0,29.71,NNW,332,8.0,16.0,81,0.00,,,0.00,,2013-02-19 23:32:00,
2013-02-19 17:41:00,16.0,11.0,29.71,NNW,332,8.0,16.0,81,0.00,,,0.00,,2013-02-19 23:41:00,
2013-02-19 17:52:00,16.0,11.0,29.71,NNW,339,11.0,18.0,80,0.00,,,0.00,,2013-02-19 23:52:00,
2013-02-19 18:01:00,16.0,11.0,29.72,NNW,328,12.0,18.0,79,0.00,,,0.00,,2013-02-20 00:01:00,
2013-02-19 18:11:00,16.0,11.0,29.72,NNW,328,12.0,18.0,79,0.00,,,0.00,,2013-02-20 00:11:00,
2013-02-19 18:21:00,16.0,11.0,29.74,NNW,329,11.0,17.0,79,0.00,,,0.00,,2013-02-20 00:21:00,
2013-02-19 18:32:00,14.0,8.0,29.76,NNW,331,15.0,28.0,77,0.00,,,0.00,,2013-02-20 00:32:00,
2013-02-19 18:42:00,14.0,8.0,29.76,NNW,331,15.0,28.0,77,0.00,,,0.00,,2013-02-20 00:42:00,
2013-02-19 18:52:00,14.0,8.0,29.76,NW,323,13.0,21.0,76,0.00,,,0.00,,2013-02-20 00:52:00,
2013-02-19 19:02:00,14.0,8.0,29.77,NNW,327,14.0,24.0,76,0.00,,,0.00,,2013-02-20 01:02:00,
2013-02-19 19:11:00,14.0,8.0,29.77,NNW,327,14.0,24.0,76,0.00,,,0.00,,2013-02-20 01:11:00,
2013-02-19 19:21:00,14.0,8.0,29.77,NNW,327,14.0,24.0,76,0.00,,,0.00,,2013-02-20 01:21:00,
2013-02-19 19:32:00,12.0,6.0,29.79,NNW,337,15.0,24.0,75,0.00,,,0.00,,2013-02-20 01:32:00,
2013-02-19 19:42:00,12.0,6.0,29.79,NNW,337,15.0,24.0,75,0.00,,,0.00,,2013-02-20 01:42:00,
2013-02-19 19:52:00,12.0,5.0,29.80,NNW,337,15.0,25.0,74,0.00,,,0.00,,2013-02-20 01:52:00,
2013-02-19 20:01:00,11.0,4.0,29.81,NNW,334,11.0,20.0,74,0.00,,,0.00,,2013-02-20 02:01:00,
2013-02-19 20:11:00,11.0,4.0,29.81,NNW,334,11.0,20.0,74,0.00,,,0.00,,2013-02-20 02:11:00,
2013-02-19 20:21:00,11.0,4.0,29.81,NNW,334,11.0,20.0,74,0.00,,,0.00,,2013-02-20 02:21:00,
2013-02-19 20:32:00,10.0,3.0,29.82,NW,326,9.0,17.0,74,0.00,,,0.00,,2013-02-20 02:32:00,
2013-02-19 20:42:00,10.0,3.0,29.82,NW,326,9.0,17.0,74,0.00,,,0.00,,2013-02-20 02:42:00,
2013-02-19 20:52:00,10.0,3.0,29.83,NNW,327,10.0,18.0,74,0.00,,,0.00,,2013-02-20 02:52:00,
2013-02-19 21:01:00,10.0,3.0,29.83,NNW,327,10.0,18.0,74,0.00,,,0.00,,2013-02-20 03:01:00,
2013-02-19 21:12:00,10.0,3.0,29.83,NNW,327,10.0,18.0,74,0.00,,,0.00,,2013-02-20 03:12:00,
2013-02-19 21:22:00,10.0,3.0,29.83,NNW,327,10.0,18.0,74,0.00,,,0.00,,2013-02-20 03:22:00,
2013-02-19 21:32:00,10.0,3.0,29.83,NNW,327,10.0,18.0,74,0.00,,,0.00,,2013-02-20 03:32:00,